Flag for United Kingdom Weather past 2 weeks in Canterbury, England, United Kingdom

Now
50 °F

Cool.


Feels Like: 44 °F
Forecast: 51 / 60 °F
Wind: 20 mph from Northwest

Location: Manston

Current Time: Oct 22, 2014 at 11:19:24 AM

Latest Report: Oct 22, 2014 at 10:00 AM


Visibility: N/A

Pressure: 30.25 "Hg

Humidity: 75%

Dew point: 42 °F

Location of CanterburyLocation

Historic Weather in Canterbury — Graph

°F

Canterbury temperature yesterday

Maximum temperature yesterday: 58 °F (at 10:00 AM)
Minimum temperature yesterday: 48 °F (at 11:00 PM)
Average temperature yesterday: 54 °F

Past Weeks' High & Low Weather Summary

 TemperatureHumidityPressure
High70 °F (Oct 18, 3:00 PM)99% (Oct 14, 10:00 AM)30.25 "Hg (Oct 14, 10:00 AM)
Low47 °F (Oct 12, 8:00 AM)54% (Oct 21, 2:00 PM)29.38 "Hg (Oct 7, 10:00 AM)
Average57 °F85%29.76 "Hg
* Reported Oct 7 10:00 AM — Oct 22 10:00 AM, Canterbury, Weather by CustomWeather, © 2014

Note: Actual official high and low records may vary slightly from our data, if they occured in-between our weather recording intervals... More about our weather records

Advertising

Canterbury weather history for previous 24 hours

 ConditionsComfort  
Time TempWeatherWind HumidityBarometerVisibility
10:00 AM
Oct 22
50 °FCool.20 mph75%30.25 "HgN/A
9:00 AM50 °FCool.22 mph72%30.24 "HgN/A
8:00 AM49 °FCool.22 mph75%30.22 "HgN/A
7:00 AM49 °FCool.22 mph74%30.20 "HgN/A
6:00 AM48 °FCool.22 mph74%30.19 "HgN/A
5:00 AM47 °FCool.20 mph73%30.18 "HgN/A
4:00 AM47 °FCool.23 mph72%30.16 "HgN/A
3:00 AM47 °FCool.22 mph72%30.16 "HgN/A
2:00 AM48 °FCool.21 mph69%30.15 "HgN/A
1:00 AM47 °FCool.22 mph67%30.12 "HgN/A
12:00 AM48 °FCool.24 mph62%30.09 "HgN/A
11:00 PM
Oct 21
48 °FCool.26 mph67%30.05 "HgN/A
10:00 PM49 °FCool.30 mph68%30.01 "HgN/A
9:00 PM49 °FCool.30 mph67%29.96 "HgN/A
8:00 PM49 °FCool.31 mph65%29.93 "HgN/A
7:00 PM50 °FCool.31 mph67%29.89 "HgN/A
6:00 PM51 °FCool.32 mph60%29.84 "HgN/A
5:00 PM53 °FCool.24 mph66%29.78 "HgN/A
4:00 PM53 °FCool.23 mph69%29.74 "HgN/A
3:00 PM55 °FRefreshingly cool.31 mph57%29.71 "HgN/A
2:00 PM56 °FRefreshingly cool.30 mph54%29.68 "HgN/A
1:00 PM56 °FRefreshingly cool.32 mph55%29.64 "HgN/A
12:00 PM56 °FCool.30 mph62%29.62 "HgN/A
11:00 AM58 °FCool.24 mph77%29.57 "HgN/A
Weather by CustomWeather, © 2014

See weather overviewHow to use our weather pages